TimeEST,TemperatureF,Dew PointF,Humidity,Sea Level PressureIn,VisibilityMPH,Wind Direction,Wind SpeedMPH,Gust SpeedMPH,PrecipitationIn,Events,Conditions,WindDirDegrees,DateUTC
12:15 AM,35.6,33.8,93,29.90,10.0,NNE,9.2,-,N/A,,Overcast,20,2014-03-08 05:15:00
12:35 AM,35.6,32.0,87,29.89,10.0,NNE,9.2,-,N/A,,Overcast,20,2014-03-08 05:35:00
12:55 AM,35.6,32.0,87,29.88,10.0,North,9.2,-,N/A,,Overcast,10,2014-03-08 05:55:00
1:35 AM,35.6,33.8,93,29.85,10.0,NNE,11.5,-,N/A,,Overcast,20,2014-03-08 06:35:00
1:55 AM,35.6,33.8,93,29.84,10.0,NNE,10.4,-,N/A,,Overcast,20,2014-03-08 06:55:00
2:15 AM,35.6,33.8,93,29.82,10.0,NNE,11.5,-,N/A,,Overcast,20,2014-03-08 07:15:00
2:35 AM,35.6,33.8,93,29.81,10.0,NNE,11.5,-,N/A,,Overcast,30,2014-03-08 07:35:00
2:55 AM,35.6,33.8,93,29.80,10.0,NNE,11.5,17.3,N/A,,Overcast,20,2014-03-08 07:55:00
3:15 AM,35.6,33.8,93,29.80,10.0,NNE,10.4,17.3,N/A,,Overcast,20,2014-03-08 08:15:00
3:35 AM,35.6,33.8,93,29.80,10.0,North,11.5,19.6,N/A,,Overcast,10,2014-03-08 08:35:00
3:55 AM,35.6,33.8,93,29.79,10.0,NNE,13.8,-,N/A,,Overcast,20,2014-03-08 08:55:00
4:15 AM,35.6,33.8,93,29.79,10.0,North,-9999.0,-,N/A,,Overcast,0,2014-03-08 09:15:00
4:35 AM,35.6,33.8,93,29.80,10.0,North,12.7,-,N/A,,Overcast,10,2014-03-08 09:35:00
4:55 AM,35.6,33.8,93,29.79,10.0,North,9.2,-,N/A,,Overcast,10,2014-03-08 09:55:00
5:15 AM,33.8,33.8,100,29.79,10.0,North,9.2,16.1,N/A,,Overcast,10,2014-03-08 10:15:00
5:35 AM,33.8,32.0,93,29.79,10.0,North,8.1,18.4,N/A,,Overcast,10,2014-03-08 10:35:00
5:55 AM,33.8,32.0,93,29.78,10.0,NNE,9.2,-,N/A,,Overcast,20,2014-03-08 10:55:00
6:15 AM,33.8,32.0,93,29.79,10.0,NNE,6.9,-,N/A,,Mostly Cloudy,20,2014-03-08 11:15:00
6:35 AM,33.8,32.0,93,29.79,10.0,North,8.1,-,N/A,,Mostly Cloudy,10,2014-03-08 11:35:00
6:55 AM,33.8,32.0,93,29.79,10.0,Calm,Calm,12.7,N/A,,Scattered Clouds,0,2014-03-08 11:55:00
7:15 AM,35.6,32.0,87,29.80,10.0,North,5.8,-,N/A,,Mostly Cloudy,10,2014-03-08 12:15:00
7:35 AM,35.6,33.8,93,29.79,10.0,North,6.9,-,N/A,,Mostly Cloudy,10,2014-03-08 12:35:00
7:55 AM,35.6,33.8,93,29.79,10.0,North,8.1,-,N/A,,Scattered Clouds,10,2014-03-08 12:55:00
8:15 AM,37.4,33.8,87,29.78,10.0,NNE,9.2,-,N/A,,Partly Cloudy,20,2014-03-08 13:15:00
8:35 AM,37.4,32.0,81,29.79,10.0,NNE,6.9,12.7,N/A,,Scattered Clouds,20,2014-03-08 13:35:00
8:55 AM,37.4,32.0,81,29.78,10.0,NNE,10.4,-,N/A,,Partly Cloudy,30,2014-03-08 13:55:00
9:15 AM,41.0,33.8,76,29.76,10.0,Variable,6.9,-,N/A,,Clear,0,2014-03-08 14:15:00
9:35 AM,42.8,33.8,70,29.77,10.0,North,8.1,-,N/A,,Clear,10,2014-03-08 14:35:00
9:55 AM,44.6,33.8,66,29.77,10.0,NNW,10.4,16.1,N/A,,Clear,340,2014-03-08 14:55:00
10:15 AM,46.4,32.0,57,29.76,10.0,Variable,5.8,11.5,N/A,,Clear,0,2014-03-08 15:15:00
10:35 AM,48.2,32.0,54,29.76,10.0,NW,6.9,-,N/A,,Clear,310,2014-03-08 15:35:00
10:55 AM,48.2,32.0,54,29.75,10.0,WNW,8.1,16.1,N/A,,Clear,290,2014-03-08 15:55:00
11:15 AM,48.2,32.0,54,29.75,10.0,WNW,9.2,-,N/A,,Clear,290,2014-03-08 16:15:00
11:35 AM,50.0,30.2,47,29.74,10.0,WNW,11.5,-,N/A,,Clear,290,2014-03-08 16:35:00
11:55 AM,50.0,28.4,43,29.74,10.0,NW,8.1,-,N/A,,Clear,310,2014-03-08 16:55:00
12:15 PM,51.8,26.6,38,29.72,10.0,North,9.2,-,N/A,,Clear,350,2014-03-08 17:15:00
12:35 PM,51.8,24.8,35,29.71,10.0,NW,8.1,17.3,N/A,,Clear,320,2014-03-08 17:35:00
12:55 PM,51.8,23.0,33,29.69,10.0,NW,8.1,15.0,N/A,,Clear,320,2014-03-08 17:55:00
1:15 PM,53.6,23.0,30,29.69,10.0,WNW,10.4,-,N/A,,Clear,300,2014-03-08 18:15:00
1:35 PM,55.4,23.0,29,29.68,10.0,NW,8.1,-,N/A,,Clear,320,2014-03-08 18:35:00
1:55 PM,53.6,26.6,35,29.69,10.0,NNE,8.1,-,N/A,,Clear,30,2014-03-08 18:55:00
2:15 PM,51.8,26.6,38,29.68,10.0,NNE,8.1,-,N/A,,Clear,20,2014-03-08 19:15:00
2:35 PM,51.8,24.8,35,29.69,10.0,NE,6.9,12.7,N/A,,Clear,40,2014-03-08 19:35:00
2:55 PM,51.8,24.8,35,29.69,10.0,Variable,4.6,-,N/A,,Clear,0,2014-03-08 19:55:00
3:15 PM,51.8,24.8,35,29.70,10.0,ENE,5.8,-,N/A,,Clear,60,2014-03-08 20:15:00
3:35 PM,51.8,28.4,41,29.70,10.0,SSE,6.9,-,N/A,,Clear,150,2014-03-08 20:35:00
3:55 PM,50.0,26.6,40,29.70,10.0,East,5.8,-,N/A,,Mostly Cloudy,100,2014-03-08 20:55:00
4:15 PM,50.0,23.0,35,29.71,10.0,NNE,5.8,-,N/A,,Mostly Cloudy,30,2014-03-08 21:15:00
4:35 PM,48.2,23.0,37,29.71,10.0,NNE,4.6,-,N/A,,Scattered Clouds,30,2014-03-08 21:35:00
4:55 PM,44.6,23.0,43,29.72,10.0,ENE,4.6,-,N/A,,Clear,60,2014-03-08 21:55:00
5:15 PM,44.6,23.0,43,29.72,10.0,ENE,5.8,-,N/A,,Scattered Clouds,70,2014-03-08 22:15:00
5:55 PM,39.2,23.0,52,29.74,10.0,NE,5.8,-,N/A,,Clear,40,2014-03-08 22:55:00
6:15 PM,41.0,23.0,49,29.75,10.0,Calm,Calm,-,N/A,,Clear,0,2014-03-08 23:15:00
6:35 PM,37.4,23.0,56,29.76,10.0,Calm,Calm,-,N/A,,Clear,0,2014-03-08 23:35:00
6:55 PM,35.6,23.0,60,29.76,10.0,Calm,Calm,-,N/A,,Clear,0,2014-03-08 23:55:00
7:15 PM,33.8,23.0,65,29.77,10.0,Calm,Calm,-,N/A,,Clear,0,2014-03-09 00:15:00
7:35 PM,32.0,23.0,69,29.77,10.0,Calm,Calm,-,N/A,,Partly Cloudy,0,2014-03-09 00:35:00
7:55 PM,30.2,23.0,75,29.78,10.0,Calm,Calm,-,N/A,,Mostly Cloudy,0,2014-03-09 00:55:00
8:15 PM,30.2,23.0,75,29.78,10.0,North,3.5,-,N/A,,Overcast,350,2014-03-09 01:15:00
8:35 PM,33.8,23.0,65,29.80,10.0,North,8.1,-,N/A,,Overcast,10,2014-03-09 01:35:00
8:55 PM,35.6,21.2,56,29.81,10.0,North,6.9,-,N/A,,Overcast,10,2014-03-09 01:55:00
9:15 PM,35.6,21.2,56,29.81,10.0,North,5.8,-,N/A,,Overcast,360,2014-03-09 02:15:00
9:35 PM,35.6,23.0,60,29.82,10.0,North,5.8,-,N/A,,Overcast,10,2014-03-09 02:35:00
9:55 PM,35.6,24.8,65,29.82,10.0,North,5.8,-,N/A,,Overcast,360,2014-03-09 02:55:00
10:15 PM,35.6,24.8,65,29.83,10.0,Calm,Calm,-,N/A,,Overcast,0,2014-03-09 03:15:00
10:35 PM,35.6,26.6,70,29.83,10.0,NNE,6.9,-,N/A,,Overcast,20,2014-03-09 03:35:00
10:55 PM,37.4,28.4,70,29.84,10.0,North,9.2,15.0,N/A,,Overcast,10,2014-03-09 03:55:00
11:15 PM,37.4,26.6,65,29.84,10.0,North,5.8,11.5,N/A,,Overcast,10,2014-03-09 04:15:00
11:35 PM,37.4,26.6,65,29.84,10.0,North,5.8,13.8,N/A,,Overcast,10,2014-03-09 04:35:00
11:55 PM,35.6,26.6,70,29.84,10.0,NNE,8.1,-,N/A,,Overcast,20,2014-03-09 04:55:00